Location: Caltech
(34.1382°N, 118.1253°W)
Time: 01:14:17
(UTC-08:00)

ALOS - Visible Passes

Search period start: 24 January 2017 00:00
Search period end: 03 February 2017 00:00
Orbit: 684 x 687 km, 97.9° (Epoch: 23 January)

Date Brightness Start Highest point End Pass type
(mag) Time Alt. Az. Time Alt. Az. Time Alt. Az.
24 Jan 2.3 19:11:54 10° S 19:16:34 78° W 19:21:15 10° NNW visible
25 Jan 3.3 18:13:20 10° ESE 18:16:59 23° ENE 18:20:37 10° NNE visible
25 Jan 4.1 19:50:13 10° SSW 19:54:14 29° W 19:58:16 10° NW visible
26 Jan 2.2 18:49:46 10° SSE 18:54:20 59° ENE 18:58:56 10° N visible
26 Jan 5.4 20:31:03 10° WSW 20:32:05 11° W 20:33:08 10° WNW visible
27 Jan 3.9 17:52:39 10° E 17:54:56 14° ENE 17:57:13 10° NE visible
27 Jan 3.0 19:27:22 10° S 19:31:53 51° W 19:36:26 10° NNW visible
28 Jan 2.8 18:28:00 10° SE 18:32:10 33° ENE 18:36:20 10° N visible
28 Jan 4.7 20:06:17 10° SW 20:09:38 19° W 20:12:59 10° NW visible
29 Jan 2.1 19:04:57 10° SSE 19:09:36 89° E 19:14:17 10° NNW visible
30 Jan 3.5 18:06:43 10° ESE 18:10:04 20° ENE 18:13:25 10° NNE visible
30 Jan 3.8 19:43:01 10° SSW 19:47:14 34° W 19:51:27 10° NNW visible
31 Jan 2.4 18:42:54 10° SSE 18:47:23 50° ENE 18:51:54 10° N visible
31 Jan 5.3 20:22:59 10° WSW 20:25:03 13° W 20:27:08 10° WNW visible
01 Feb 4.0 17:46:28 10° E 17:48:02 12° ENE 17:49:36 10° NE visible
01 Feb 2.7 19:20:19 10° S 19:24:54 60° W 19:29:32 10° NNW visible
02 Feb 3.1 18:21:15 10° SE 18:25:14 29° ENE 18:29:14 10° NNE visible
02 Feb 4.5 19:58:57 10° SSW 20:02:37 23° W 20:06:17 10° NW visible
